Regional Weather Roundup
Issued by NWS

Home | Current Version | Previous Version | Graphics & Text | Print | Product List | Glossary On
Versions: 1 2 3 4 5 6 7 8 9 10 11 12 13 14 15 16 17 18 19 20 21 22 23 24 25 26 27 28 29 30 31 32 33 34 35 36 37 38 39 40 41 42 43 44 45 46 47 48 49 50
000
ASUS43 KBIS 181920
RWRND

NORTH DAKOTA REGIONAL WEATHER ROUNDUP
NATIONAL WEATHER SERVICE BISMARCK ND
200 PM CDT SAT APR 18 2015

NOTE: "FAIR" INDICATES FEW OR NO CLOUDS BELOW 12,000 FEET WITH NO
SIGNIFICANT WEATHER AND/OR OBSTRUCTIONS TO VISIBILITY.


NDZ001>003-009>011-017-182000-
NORTHWEST NORTH DAKOTA

CITY           SKY/WX    TMP DP  RH WIND       PRES   REMARKS
WILLISTON      LGT RAIN  63  43  48 W12G30    29.87F
MINOT          SUNNY     72  21  14 S17G23    29.89F
MINOT AFB      SUNNY     72  28  20 SW14G23   29.87F
$$

NDZ018>021-031>035-040>046-182000-
SOUTHWEST NORTH DAKOTA

CITY           SKY/WX    TMP DP  RH WIND       PRES   REMARKS
BISMARCK       CLOUDY    61  31  32 CALM      29.96F
DICKINSON      MOSUNNY   68  35  29 W10       29.90F
GARRISON         N/A     69  25  19 S8        29.91F
HETTINGER ARPT CLOUDY    60  41  49 SE5       29.96F
$$

NDZ004>008-012>016-024-026-027-054-182000-
NORTHEAST NORTH DAKOTA

CITY           SKY/WX    TMP DP  RH WIND       PRES   REMARKS
GRAND FORKS    PTSUNNY   65  24  21 SE6       29.98F
GRND FRKS AFB  PTSUNNY   65  28  24 S12       29.98F
DEVILS LAKE    MOSUNNY   64  28  25 S15       29.95F
$$

NDZ022-023-025-028>030-036>039-047>053-182000-
SOUTHEAST NORTH DAKOTA

CITY           SKY/WX    TMP DP  RH WIND       PRES   REMARKS
FARGO          PTSUNNY   69  28  21 SE9       29.97F
JAMESTOWN      CLOUDY    64  28  25 SE10      29.95F
$$




USA.gov is the U.S. government's official web portal to all federal, state and local government web resources and services.